This demonstration page uses our WeatherBlox Daily Observations layout. Learn more.

Left ArrowRight Arrow

38.80484, -77.04692

Hourly Observations for August 1, 2022

Temp ( °F °C ) Dew Point ( °F °C ) Humidity (%) Winds ( mph kmh ) Pressure ( in mb ) Visibility ( mi km ) Precip ( " mm )
12:52 am 00:52 Cloudy 73 22.8 66 18.9 79 79 Calm 30.03 1017 10 16 0.00 0.00
1:52 am 01:52 Cloudy 74 23.3 67 19.4 79 79 Calm 30.01 1016 10 16 0.00 0.00
2:52 am 02:52 Cloudy 74 23.3 67 19.4 79 79 Calm 30.00 1016 10 16 0.00 0.00
3:52 am 03:52 Cloudy 73 22.8 68 20 84 84 Calm 29.99 1016 10 16 0.00 0.00
4:52 am 04:52 Cloudy 73 22.8 69 20.6 87 87 WSW 3 6 29.99 1016 8 13 0.00 0.00
5:35 am 05:35 Cloudy 73 22.8 69 20.6 87 87 WSW 7 11 30.00 1016 10 16 0.00 0.00
5:52 am 05:52 Cloudy 73 22.8 68 20 84 84 W 7 11 30.00 1016 10 16 0.00 0.00
6:21 am 06:21 Mostly Cloudy 73 22.8 68 20 84 84 W 7 11 30.01 1016 10 16 0.00 0.00
6:32 am 06:32 Mostly Cloudy 73 22.8 68 20 84 84 NW 7 11 30.01 1016 10 16 0.00 0.00
6:50 am 06:50 Mostly Cloudy 73 23 66 19 78 78 WNW 7 11 30.01 1016 10 16 0.00 0.00
6:52 am 06:52 Mostly Cloudy 73 22.8 67 19.4 81 81 NW 6 9 30.01 1016 10 16 0.00 0.00
7:08 am 07:08 Mostly Cloudy 73 22.8 67 19.4 81 81 NNW 6 9 30.01 1016 10 16 0.00 0.00
7:52 am 07:52 Mostly Cloudy 75 23.9 67 19.4 76 76 NNW 8 13 30.01 1016 10 16 0.00 0.00
8:52 am 08:52 Mostly Cloudy 75 23.9 66 18.9 74 74 NNW 9 15 30.02 1017 10 16 0.00 0.00
9:52 am 09:52 Partly Cloudy 78 25.6 66 18.9 67 67 NNW 7 11 30.01 1016 10 16 0.00 0.00
10:52 am 10:52 Partly Cloudy 79 26.1 65 18.3 62 62 WNW 8 13 30.00 1016 10 16 0.00 0.00
11:19 am 11:19 Mostly Cloudy 81 27.2 65 18.3 58 58 WNW 9 15 30.00 1016 10 16 0.00 0.00
11:46 am 11:46 Mostly Cloudy 82 28 66 19 58 58 NNW 8 13 30.00 1016 10 16 0.00 0.00
11:52 am 11:52 Mostly Cloudy 82 27.8 65 18.3 56 56 WNW 8 13 29.99 1016 10 16 0.00 0.00
12:52 pm 12:52 Mostly Cloudy 82 27.8 65 18.3 56 56 W 9 15 29.98 1015 10 16 0.00 0.00
1:52 pm 13:52 Mostly Cloudy 84 28.9 66 18.9 55 55 N 6 9 29.97 1015 10 16 0.00 0.00
2:52 pm 14:52 Mostly Cloudy 87 30.6 64 17.8 46 46 WNW 12 19 29.95 1014 10 16 0.00 0.00
3:52 pm 15:52 Mostly Cloudy 87 30.6 65 18.3 48 48 Calm 29.92 1013 10 16 0.00 0.00
4:52 pm 16:52 Partly Cloudy 89 31.7 66 18.9 47 47 W 6 9 29.91 1013 10 16 0.00 0.00
5:52 pm 17:52 Partly Cloudy 86 30 67 19.4 53 53 S 9 15 29.88 1012 10 16 0.00 0.00
6:52 pm 18:52 Mostly Cloudy 85 29.4 68 20 57 57 S 9 15 29.89 1012 10 16 0.00 0.00
7:52 pm 19:52 Mostly Cloudy 84 28.9 69 20.6 61 61 S 9 15 29.89 1012 10 16 0.00 0.00
8:52 pm 20:52 Mostly Cloudy 83 28.3 70 21.1 65 65 SSW 8 13 29.89 1012 10 16 0.00 0.00
9:52 pm 21:52 Partly Cloudy 82 27.8 71 21.7 69 69 S 10 17 29.90 1012 10 16 0.00 0.00
10:52 pm 22:52 Partly Cloudy 81 27.2 71 21.7 72 72 S 8 13 29.90 1012 10 16 0.00 0.00
11:36 pm 23:36 Cloudy with Light Rain 79 26.1 73 22.8 82 82 SSW 7 11 29.89 1012 7 11 0.00 0.00
11:52 pm 23:52 Cloudy with Thunderstorms 79 26.1 73 22.8 82 82 SW 3 6 29.88 1012 10 16 0.01 0.25

Powered by AerisWeather